When you browse on this site, cookies collect data to enhance your experience and personalize the content and advertising you see.
Visit our Privacy Policy to learn more. By continuing to use the site, you agree to this use of cookies and data.
  • In France
  • List of Countries
  • For 7 days
  • Water Temperature
  • Satellite Maps
  • Weather Map
  • Weather Widgets
  • user-avatar
    Login

    Hourly Weather Laszkar Gah

    Today, 24 January, Thursday

    Time Temperature Precipitation Wind Pressure Humidity
    00:00 +7°C° 0 mm 2 mps 697 mmHg 25%
    01:00 +7°C° 0 mm 2 mps 697 mmHg 25%
    02:00 +6°C° 0 mm 2 mps 697 mmHg 27%
    03:00 +6°C° 0 mm 2 mps 697 mmHg 29%
    04:00 +5°C° 0 mm 3 mps 697 mmHg 30%
    05:00 +5°C° 0 mm 3 mps 698 mmHg 32%
    06:00 +4°C° 0 mm 3 mps 698 mmHg 34%
    07:00 +4°C° 0 mm 3 mps 698 mmHg 35%
    08:00 +7°C° 0 mm 3 mps 699 mmHg 31%
    09:00 +9°C° 0 mm 3 mps 699 mmHg 27%
    10:00 +11°C° 0 mm 3 mps 700 mmHg 22%
    11:00 +11°C° 0 mm 3 mps 699 mmHg 21%
    12:00 +13°C° 0 mm 2 mps 699 mmHg 20%
    13:00 +14°C° 0 mm 2 mps 699 mmHg 18%
    14:00 +14°C° 0 mm 2 mps 699 mmHg 18%
    15:00 +14°C° 0 mm 2 mps 698 mmHg 18%
    16:00 +14°C° 0 mm 2 mps 698 mmHg 18%
    17:00 +13°C° 0 mm 2 mps 698 mmHg 20%
    18:00 +12°C° 0 mm 2 mps 698 mmHg 22%
    19:00 +11°C° 0 mm 1 mps 698 mmHg 24%
    20:00 +10°C° 0 mm 1 mps 698 mmHg 25%
    21:00 +10°C° 0 mm 1 mps 698 mmHg 26%
    22:00 +9°C° 0 mm 1 mps 698 mmHg 26%
    23:00 +9°C° 0 mm 1 mps 698 mmHg 27%

    Tomorrow, 25 January, Friday

    Time Temperature Precipitation Wind Pressure Humidity
    00:00 +7°C° 0 mm 2 mps 698 mmHg 27%
    01:00 +7°C° 0 mm 2 mps 698 mmHg 28%
    02:00 +6°C° 0 mm 2 mps 697 mmHg 28%
    03:00 +6°C° 0 mm 2 mps 697 mmHg 28%
    04:00 +6°C° 0 mm 2 mps 697 mmHg 29%
    05:00 +6°C° 0 mm 2 mps 697 mmHg 29%
    06:00 +5°C° 0 mm 2 mps 697 mmHg 29%
    07:00 +5°C° 0 mm 2 mps 697 mmHg 29%
    08:00 +7°C° 0 mm 2 mps 698 mmHg 25%
    09:00 +9°C° 0 mm 2 mps 699 mmHg 21%
    10:00 +12°C° 0 mm 2 mps 699 mmHg 18%
    11:00 +12°C° 0 mm 1 mps 699 mmHg 17%
    12:00 +13°C° 0 mm 1 mps 698 mmHg 17%
    13:00 +13°C° 0 mm 0 mps 698 mmHg 17%
    14:00 +13°C° 0 mm 0 mps 698 mmHg 16%
    15:00 +13°C° 0 mm 0 mps 697 mmHg 16%
    16:00 +13°C° 0 mm 0 mps 697 mmHg 16%
    17:00 +13°C° 0 mm 1 mps 697 mmHg 17%
    18:00 +12°C° 0 mm 1 mps 697 mmHg 19%
    19:00 +10°C° 0 mm 2 mps 697 mmHg 20%
    20:00 +10°C° 0 mm 2 mps 697 mmHg 20%
    21:00 +10°C° 0 mm 3 mps 697 mmHg 20%
    22:00 +9°C° 0 mm 3 mps 697 mmHg 20%
    23:00 +9°C° 0 mm 3 mps 697 mmHg 21%

    Day after tomorrow, 26 January, Saturday

    Time Temperature Precipitation Wind Pressure Humidity
    00:00 +8°C° 0 mm 3 mps 697 mmHg 22%
    01:00 +8°C° 0 mm 3 mps 697 mmHg 22%
    02:00 +8°C° 0 mm 3 mps 697 mmHg 23%
    03:00 +8°C° 0 mm 3 mps 697 mmHg 24%
    04:00 +6°C° 0 mm 4 mps 697 mmHg 25%
    05:00 +6°C° 0 mm 4 mps 697 mmHg 26%
    06:00 +6°C° 0 mm 4 mps 697 mmHg 26%
    07:00 +6°C° 0 mm 4 mps 698 mmHg 27%
    08:00 +8°C° 0 mm 4 mps 698 mmHg 24%
    09:00 +9°C° 0 mm 5 mps 699 mmHg 21%
    10:00 +12°C° 0 mm 5 mps 699 mmHg 18%
    11:00 +13°C° 0 mm 5 mps 699 mmHg 17%
    12:00 +14°C° 0 mm 5 mps 699 mmHg 15%
    13:00 +15°C° 0 mm 4 mps 698 mmHg 14%
    14:00 +17°C° 0 mm 4 mps 698 mmHg 14%
    15:00 +17°C° 0 mm 3 mps 698 mmHg 14%
    16:00 +17°C° 0 mm 3 mps 697 mmHg 13%
    17:00 +16°C° 0 mm 3 mps 697 mmHg 16%
    18:00 +13°C° 0 mm 4 mps 698 mmHg 18%
    19:00 +12°C° 0 mm 4 mps 698 mmHg 20%
    20:00 +11°C° 0 mm 4 mps 698 mmHg 22%
    21:00 +11°C° 0 mm 4 mps 698 mmHg 23%
    22:00 +10°C° 0 mm 4 mps 698 mmHg 25%
    23:00 +10°C° 0 mm 4 mps 698 mmHg 26%

    27 January, Sunday

    Time Temperature Precipitation Wind Pressure Humidity
    00:00 +8°C° 0 mm 4 mps 698 mmHg 27%
    01:00 +8°C° 0 mm 4 mps 698 mmHg 28%
    02:00 +8°C° 0 mm 4 mps 698 mmHg 29%
    03:00 +8°C° 0 mm 4 mps 698 mmHg 29%
    04:00 +7°C° 0 mm 4 mps 697 mmHg 30%
    05:00 +7°C° 0 mm 4 mps 698 mmHg 30%
    06:00 +7°C° 0 mm 4 mps 698 mmHg 31%
    07:00 +7°C° 0 mm 4 mps 699 mmHg 31%
    08:00 +10°C° 0 mm 4 mps 699 mmHg 28%
    09:00 +12°C° 0 mm 4 mps 700 mmHg 24%
    10:00 +14°C° 0 mm 4 mps 700 mmHg 21%
    11:00 +15°C° 0 mm 4 mps 700 mmHg 20%
    12:00 +17°C° 0 mm 3 mps 700 mmHg 19%
    13:00 +18°C° 0 mm 2 mps 699 mmHg 18%
    14:00 +18°C° 0 mm 2 mps 699 mmHg 18%
    15:00 +19°C° 0 mm 1 mps 699 mmHg 18%
    16:00 +19°C° 0 mm 1 mps 698 mmHg 18%
    17:00 +18°C° 0 mm 1 mps 699 mmHg 19%
    18:00 +15°C° 0 mm 1 mps 699 mmHg 21%
    19:00 +14°C° 0 mm 2 mps 699 mmHg 23%
    20:00 +14°C° 0 mm 2 mps 699 mmHg 23%
    21:00 +13°C° 0 mm 2 mps 699 mmHg 23%
    22:00 +12°C° 0 mm 3 mps 699 mmHg 23%
    23:00 +12°C° 0 mm 3 mps 699 mmHg 24%

    28 January, Monday

    Time Temperature Precipitation Wind Pressure Humidity
    00:00 +11°C° 0 mm 3 mps 698 mmHg 25%
    01:00 +11°C° 0 mm 3 mps 698 mmHg 26%
    02:00 +10°C° 0 mm 3 mps 698 mmHg 27%
    03:00 +10°C° 0 mm 3 mps 698 mmHg 28%
    04:00 +10°C° 0 mm 3 mps 698 mmHg 28%
    05:00 +10°C° 0 mm 3 mps 698 mmHg 29%
    06:00 +10°C° 0 mm 3 mps 699 mmHg 29%
    07:00 +10°C° 0 mm 3 mps 699 mmHg 29%
    08:00 +12°C° 0 mm 3 mps 700 mmHg 26%
    09:00 +14°C° 0 mm 4 mps 700 mmHg 23%
    10:00 +17°C° 0 mm 4 mps 701 mmHg 20%
    11:00 +18°C° 0 mm 3 mps 700 mmHg 20%
    12:00 +19°C° 0 mm 3 mps 700 mmHg 20%
    13:00 +20°C° 0 mm 2 mps 700 mmHg 19%
    14:00 +20°C° 0 mm 2 mps 699 mmHg 20%
    15:00 +20°C° 0 mm 2 mps 699 mmHg 20%
    16:00 +21°C° 0 mm 3 mps 698 mmHg 20%
    17:00 +19°C° 0 mm 3 mps 698 mmHg 22%
    18:00 +18°C° 0 mm 3 mps 698 mmHg 24%
    19:00 +17°C° 0 mm 4 mps 698 mmHg 25%
    20:00 +17°C° 0 mm 4 mps 698 mmHg 26%
    21:00 +15°C° 0 mm 4 mps 698 mmHg 28%
    22:00 +15°C° 0 mm 4 mps 698 mmHg 29%
    23:00 +14°C° 0 mm 4 mps 698 mmHg 32%

    29 January, Tuesday

    Time Temperature Precipitation Wind Pressure Humidity
    00:00 +14°C° 0 mm 4 mps 697 mmHg 34%
    01:00 +13°C° 0 mm 4 mps 697 mmHg 36%
    02:00 +13°C° 0 mm 4 mps 697 mmHg 37%
    03:00 +13°C° 0 mm 4 mps 696 mmHg 38%
    04:00 +13°C° 0 mm 4 mps 696 mmHg 39%
    05:00 +12°C° 0 mm 4 mps 696 mmHg 39%
    06:00 +12°C° 0 mm 4 mps 696 mmHg 40%
    07:00 +12°C° 0 mm 4 mps 696 mmHg 40%
    08:00 +14°C° 0 mm 4 mps 696 mmHg 37%
    09:00 +16°C° 0 mm 5 mps 697 mmHg 34%
    10:00 +19°C° 0 mm 5 mps 697 mmHg 31%
    11:00 +20°C° 0 mm 4 mps 696 mmHg 30%
    12:00 +21°C° 0 mm 3 mps 696 mmHg 29%
    13:00 +24°C° 0 mm 3 mps 695 mmHg 28%
    14:00 +23°C° 0 mm 2 mps 694 mmHg 29%
    15:00 +23°C° 0 mm 2 mps 694 mmHg 30%
    16:00 +23°C° 0 mm 2 mps 694 mmHg 30%
    17:00 +21°C° 0 mm 3 mps 694 mmHg 34%
    18:00 +20°C° 0 mm 4 mps 694 mmHg 38%
    19:00 +19°C° 0 mm 4 mps 694 mmHg 41%
    20:00 +17°C° 0 mm 5 mps 693 mmHg 44%
    21:00 +17°C° 0 mm 6 mps 693 mmHg 46%
    22:00 +16°C° 0 mm 6 mps 693 mmHg 49%
    23:00 +16°C° 0.1 mm 6 mps 692 mmHg 51%
    Show more